Location: Consuma
(43.7833°N, 11.5833°E)
Time: 18:43:09
(UTC+00:00)

Cosmos 1725 Rocket - Pass Details

Date: 17 February 2020
Orbit: 963 x 990 km, 82.9° (Epoch: 06 April)

Event Time Altitude Azimuth Distance (km) Brightness Sun altitude
Rises 05:19:19 0° 351° (N) 3,680 6.9 -9.9°
Reaches altitude 10° 05:21:50 10° 351° (N) 2,732 6.2 -9.4°
Maximum altitude 05:28:07 87° 265° (W) 988 4.0 -8.3°
Drops below altitude 10° 05:34:23 10° 176° (S) 2,732 6.5 -7.2°
Sets 05:36:54 0° 176° (S) 3,679 7.2 -6.7°
